Weather History for Oshkosh, WI

Change the Weather History Date:

Sunday, November 17, 2013

  Actual Average Record
Temperature  
Mean Temperature 49 °F -  
Max Temperature 57 °F 43 °F 69 °F (1953)
Min Temperature 39 °F 29 °F -1 °F (1959)
Degree Days  
Heating Degree Days 16    
Moisture  
Dew Point 48 °F    
Average Humidity 87    
Maximum Humidity 94    
Minimum Humidity 68    
Precipitation  
Precipitation 0.95 in - - ()
Sea Level Pressure  
Sea Level Pressure 29.31 in    
Wind  
Wind Speed 11 mph (WNW)    
Max Wind Speed 24 mph    
Max Gust Speed 37 mph    
Visibility 6 miles    
Events Rain , Thunderstorm    
Averages and records for this station are not official NWS values.
T = Trace of Precipitation, MM = Missing Value Source: NWS Daily Summary

Daily Weather History Graph

Daily Weather History Graph

Search for Another Location

Airport:

Trip Planner

Search our weather history database for the weather conditions in past years. The results will help you decide how hot, cold, wet, or windy it might be!

Date:

Astronomy

Nov. 17, 2013 Rise Set
Actual Time 6:52 AM CST 4:25 PM CST
Civil Twilight 6:20 AM CST 4:57 PM CST
Nautical Twilight 5:45 AM CST 5:32 PM CST
Astronomical Twilight 5:11 AM CST 6:06 PM CST
Moon 4:42 PM CST (11/17) 6:45 AM CST (11/17)
Length of Visible Light 10h 36m
Length of Day
9h 33m
Full, 100% of the Moon is Illuminated
Nov 17
Full
Nov 25
Last Quarter
Dec 2
New
Dec 9
First Quarter
Dec 17
Full

Hourly Weather History & Observations

Time (CST) Temp. Windchill Dew Point Humidity Pressure Visibility Wind Dir Wind Speed Gust Speed Precip Events Conditions
12:10 AM 57.2 °F - 53.6 °F 88% 29.45 in 8.0 mi SSW 12.7 mph 21.9 mph N/A   Mostly Cloudy
12:53 AM 57.0 °F - 53.1 °F 87% 29.44 in 8.0 mi SSW 15.0 mph 19.6 mph N/A   Overcast
1:06 AM 57.2 °F - 53.6 °F 88% 29.45 in 8.0 mi SSW 12.7 mph 21.9 mph N/A   Overcast
1:34 AM 57.2 °F - 53.6 °F 88% 29.44 in 8.0 mi SSW 16.1 mph 21.9 mph N/A   Overcast
1:53 AM 57.0 °F - 52.0 °F 83% 29.44 in 8.0 mi SSW 15.0 mph 21.9 mph N/A   Mostly Cloudy
2:23 AM 57.2 °F - 53.6 °F 88% 29.44 in 8.0 mi SSW 12.7 mph - N/A   Mostly Cloudy
2:33 AM 57.2 °F - 51.8 °F 82% 29.43 in 8.0 mi SSW 12.7 mph 19.6 mph N/A   Mostly Cloudy
2:53 AM 57.0 °F - 52.0 °F 83% 29.42 in 8.0 mi SSW 13.8 mph - N/A   Scattered Clouds
3:07 AM 57.2 °F - 53.6 °F 88% 29.43 in 8.0 mi SSW 11.5 mph - N/A   Mostly Cloudy
3:26 AM 57.2 °F - 51.8 °F 82% 29.41 in 8.0 mi South 11.5 mph - N/A   Scattered Clouds
3:53 AM 55.9 °F - 52.0 °F 87% 29.40 in 8.0 mi SW 6.9 mph - N/A   Mostly Cloudy
4:53 AM 55.9 °F - 52.0 °F 87% 29.39 in 10.0 mi SSW 9.2 mph - N/A   Mostly Cloudy
5:53 AM 54.0 °F - 51.1 °F 90% 29.37 in 9.0 mi South 3.5 mph - N/A   Overcast
6:53 AM 54.0 °F - 51.1 °F 90% 29.37 in 10.0 mi South 8.1 mph - N/A   Overcast
7:53 AM 54.0 °F - 51.1 °F 90% 29.33 in 6.0 mi SSE 6.9 mph - 0.01 in Rain Light Rain
8:20 AM 53.6 °F - 51.8 °F 94% 29.35 in 2.5 mi South 5.8 mph - 0.04 in Rain Light Rain
8:53 AM 54.0 °F - 52.0 °F 93% 29.30 in 1.5 mi Calm Calm - 0.10 in Rain Rain
9:07 AM 53.6 °F - 51.8 °F 94% 29.29 in 1.5 mi NNE 4.6 mph - 0.01 in Rain Light Rain
9:16 AM 53.6 °F - 51.8 °F 94% 29.29 in 1.5 mi Calm Calm - 0.03 in Rain Rain
9:37 AM 53.6 °F - 51.8 °F 94% 29.29 in 0.2 mi NW 5.8 mph - 0.16 in Rain Heavy Rain
9:53 AM 54.0 °F - 52.0 °F 93% 29.27 in 0.2 mi NNW 8.1 mph - 0.26 in Rain Light Rain
10:02 AM 53.6 °F - 51.8 °F 94% 29.28 in 1.0 mi NW 8.1 mph - 0.04 in Rain , Thunderstorm Rain
10:13 AM 53.6 °F - 51.8 °F 94% 29.30 in 2.0 mi WNW 6.9 mph - 0.08 in Rain Rain
10:20 AM 53.6 °F - 51.8 °F 94% 29.29 in 1.8 mi NW 8.1 mph - 0.10 in Rain , Thunderstorm Rain
10:25 AM 53.6 °F - 51.8 °F 94% 29.27 in 2.0 mi NNE 4.6 mph - 0.10 in Rain , Thunderstorm Light Rain
10:33 AM 53.6 °F - 51.8 °F 94% 29.26 in 2.5 mi NNE 6.9 mph - 0.12 in Rain , Thunderstorm Rain
10:38 AM 53.6 °F - 51.8 °F 94% 29.24 in 3.0 mi North 6.9 mph - 0.13 in Rain Light Rain
10:53 AM 54.0 °F - 52.0 °F 93% 29.21 in 6.0 mi NNE 6.9 mph - 0.14 in Rain Light Rain
11:39 AM 53.6 °F - 51.8 °F 94% 29.18 in 2.0 mi NE 5.8 mph - 0.00 in   Mostly Cloudy
11:42 AM 53.6 °F - 51.8 °F 94% 29.17 in 0.8 mi NE 5.8 mph - 0.00 in   Mostly Cloudy
11:50 AM 53.6 °F - 51.8 °F 94% 29.18 in 1.0 mi East 6.9 mph - 0.00 in   Mostly Cloudy
11:53 AM 53.1 °F - 51.1 °F 93% 29.17 in 1.5 mi ENE 5.8 mph - 0.00 in   Overcast
11:59 AM 51.8 °F - 50.0 °F 94% 29.21 in 2.0 mi WNW 10.4 mph - N/A   Overcast
12:08 PM 53.6 °F - 51.8 °F 94% 29.20 in 2.5 mi WNW 16.1 mph 21.9 mph 0.05 in Rain Heavy Rain
12:13 PM 53.6 °F - 51.8 °F 94% 29.20 in 1.8 mi NW 8.1 mph 21.9 mph 0.07 in Rain Rain
12:17 PM 53.6 °F - 51.8 °F 94% 29.19 in 2.0 mi NNW 5.8 mph 19.6 mph 0.09 in Rain Rain
12:32 PM 53.6 °F - 50.0 °F 88% 29.18 in 8.0 mi North 6.9 mph - 0.10 in Rain Light Rain
12:50 PM 53.6 °F - 48.2 °F 82% 29.19 in 10.0 mi NW 9.2 mph - 0.10 in   Overcast
12:53 PM 53.1 °F - 48.9 °F 86% 29.18 in 10.0 mi NNW 10.4 mph - 0.10 in   Overcast
1:07 PM 53.6 °F - 50.0 °F 88% 29.16 in 10.0 mi NW 8.1 mph - N/A   Overcast
1:53 PM 53.1 °F - 48.9 °F 86% 29.16 in 10.0 mi NNW 6.9 mph - N/A   Overcast
2:13 PM 50.0 °F - 42.8 °F 76% 29.18 in 10.0 mi NW 15.0 mph 26.5 mph N/A   Overcast
2:53 PM 46.9 °F - 43.0 °F 86% 29.18 in 4.0 mi NW 10.4 mph - 0.03 in Rain Light Rain
3:02 PM 46.4 °F 42.4 °F 42.8 °F 87% 29.19 in 4.0 mi NW 8.1 mph - 0.01 in Rain Light Rain
3:21 PM 46.4 °F 42.9 °F 42.8 °F 87% 29.20 in 1.8 mi WNW 6.9 mph - 0.06 in Rain Rain
3:33 PM 46.4 °F 41.5 °F 42.8 °F 87% 29.21 in 2.0 mi WNW 10.4 mph - 0.09 in Rain Rain
3:46 PM 46.4 °F 39.8 °F 42.8 °F 87% 29.21 in 5.0 mi NW 16.1 mph 24.2 mph 0.11 in Rain Light Rain
3:53 PM 46.9 °F - 42.1 °F 83% 29.21 in 6.0 mi WNW 15.0 mph 24.2 mph 0.11 in Rain Light Rain
4:01 PM 46.4 °F 41.5 °F 42.8 °F 87% 29.22 in 6.0 mi WNW 10.4 mph 20.7 mph 0.00 in Rain Light Rain
4:53 PM 45.0 °F 37.6 °F 41.0 °F 86% 29.28 in 5.0 mi WNW 17.3 mph 32.2 mph 0.11 in Rain Rain
5:53 PM 44.1 °F 37.1 °F 39.9 °F 85% 29.34 in 10.0 mi West 15.0 mph 32.2 mph 0.09 in Rain Light Rain
6:51 PM 44.6 °F 36.6 °F 37.4 °F 76% 29.37 in 10.0 mi West 19.6 mph 34.5 mph 0.00 in   Overcast
6:53 PM 44.1 °F 35.4 °F 37.9 °F 79% 29.38 in 10.0 mi West 21.9 mph 36.8 mph 0.00 in   Overcast
7:53 PM 43.0 °F 34.0 °F 36.0 °F 76% 29.42 in 10.0 mi WNW 21.9 mph 33.4 mph N/A   Overcast
8:53 PM 43.0 °F 34.8 °F 34.0 °F 71% 29.46 in 10.0 mi West 18.4 mph 35.7 mph N/A   Overcast
9:21 PM 42.8 °F 33.3 °F 33.8 °F 70% 29.48 in 10.0 mi West 24.2 mph 33.4 mph N/A   Overcast
9:53 PM 43.0 °F 35.4 °F 33.1 °F 68% 29.50 in 10.0 mi West 16.1 mph 32.2 mph N/A   Mostly Cloudy
10:53 PM 41.0 °F 33.1 °F 32.0 °F 70% 29.55 in 10.0 mi West 15.0 mph 28.8 mph N/A   Overcast
11:53 PM 39.9 °F 31.8 °F 30.0 °F 68% 29.58 in 10.0 mi West 15.0 mph 24.2 mph N/A   Overcast